Terug naar catalogus

STARLINK-1068

ActiefCommunicatieVLEO
NORAD 44772·PAYLOAD·🇺🇸 United States

Gelanceerd Nov 11, 2019 vanaf Cape Canaveral Space Force Station

Loading…

Volgende Passages (komende 24 uur)

TLE

VersSource: CelesTrak SupGP

Epoch: Sep 14, 2026, 20:46 UTC

1 44772C 19074BM  26257.86576389  .00426240  00000+0  56599-3 0  2570
2 44772  53.0302 313.3480 0003828  46.2457 230.9200 16.05737332    14

Volg STARLINK-1068 in realtime met AllMySat

Download on the App Store